COSMOS 2251 DEB, 33984

Orbit data source: Space-Track

COSMOS 2251 DEB, 33984 is space debris in LEO originally from a launch on Wed, 16 Jun 1993 UTC launched from the Plesetsk Missile And Space Complex (PKMTR). The debris from Iridium 33, an American commercial communications satellite, has been tracked extensively since its accidental collision with the defunct Russian satellite Cosmos 2251 in 2009. This event, occurring at high speed in low Earth orbit (LEO), generated thousands of pieces of space debris, significantly increasing the risk of further collisions. The Iridium 33 debris cloud has impacted space traffic management and orbital debris mitigation strategies, making it a subject of ongoing study in space situational awareness.

Loading next visibility...
Identifier
33984, 1993-036FT
Orbit
LEO
Country
Flag of CISCIS
Related business
Manufacturer
Unknown
Mission
Spacecraft
Bus & Motor
Unknown
Mass
Unknown
Launch date (UTC)
1993-06-16 (32 years ago)
Launch vehicle
Unknown
Launch site
Plesetsk Missile And Space Complex (PKMTR)
Object type
Payload
Rocket body
Debris
Shape & HBR
Unknown shape, 0.2 m
Radar Cross Section
Small (<0.1 m²)

Expand to show TLE details & history
Last TLE update: 9 hours ago

TLE from 9 hours ago
0 COSMOS 2251 DEB
1 33984U 93036FT  25305.63653818  .00005910  00000-0  10838-2 0  9990
2 33984  74.0090  66.4316 0024649 269.7233 105.1914 14.65783442884647
Epoch: 2025-11-01T15:16Z
TLE epoch observation values (Epoch: 2025-11-01T15:16:36.898Z)
Latitude
14.56439°
Longitude
160.36107°
Altitude
681.08 km
Speed
7.515 km/s
True Right ascension
04h 42m 42s
True Declination
14° 28' 48"
Sunlit
Object was in full shadow at epoch
Visualization orbit readout
Latitude
Unknown
Longitude
Unknown
Altitude
Unknown
Speed
Unknown
Apparent Right ascension
Unknown
Apparent Declination
Unknown
Sunlit
N/A
Visualization observer readout
Local Sidereal Time
20:25:18
Azimuth
Unknown
Elevation
Unknown
Doppler factor
Unknown
Orbital elements
Apogee altitude
689.533 km
Perigee altitude
654.776 km
Semi-major axis
7,050.292 km
Eccentricity
0.00246
Inclination
74.009°
RAAN
66.4316°
Arg. of periapsis
269.7233°
True anomaly
105.46377°
Mean anomaly
105.1914°
Eccentric anomaly
105.3276°
Mean motion
3.66634 °/min
Orbital period
98.19 mins
BSTAR
0.0010838

Documentation

Showing up to 5 results
|